Change the Weather History Date:

Wednesday, May 8, 2013

  Actual Average Record
Temperature  
Mean Temperature 66 °F -  
Max Temperature 82 °F 68 °F 89 °F (2014)
Min Temperature 52 °F 43 °F 27 °F (1974)
Cooling Degree Days 2    
Growing Degree Days 16 (Base 50)    
Moisture  
Dew Point 50 °F    
Average Humidity 55    
Maximum Humidity 86    
Minimum Humidity 30    
Precipitation  
Precipitation 0.00 in - - ()
Sea Level Pressure  
Sea Level Pressure 29.98 in    
Wind  
Wind Speed 3 mph (NNE)    
Max Wind Speed 17 mph    
Max Gust Speed 24 mph    
Visibility 10 miles    
Events Rain , Thunderstorm    
Averages and records for this station are not official NWS values.
T = Trace of Precipitation, MM = Missing Value Source: NWS Daily Summary

Daily Weather History Graph

Daily Weather History Graph

Search for Another Location

Airport or City:

Trip Planner

Search our weather history database for the weather conditions in past years. The results will help you decide how hot, cold, wet, or windy it might be!

Date:

Astronomy

May. 08, 2013 Rise Set
Actual Time 6:26 AM EDT 8:42 PM EDT
Civil Twilight 5:55 AM EDT 9:13 PM EDT
Nautical Twilight 5:17 AM EDT 9:51 PM EDT
Astronomical Twilight 4:35 AM EDT 10:33 PM EDT
Moon 5:34 AM EDT (5/8) 7:39 PM EDT (5/8)
Length of Visible Light 15h 18m
Length of Day
14h 16m
Waning Crescent, 2% of the Moon is Illuminated
May 8
Waning Crescent
May 9
New
May 18
First Quarter
May 25
Full
May 31
Last Quarter

Hourly Weather History & Observations

Time (EDT) Temp. Dew Point Humidity Pressure Visibility Wind Dir Wind Speed Gust Speed Precip Events Conditions
12:53 AM 60.1 °F 52.0 °F 75% 30.01 in 10.0 mi Calm Calm - N/A   Overcast
1:53 AM 57.0 °F 50.0 °F 77% 29.99 in 10.0 mi Calm Calm - N/A   Clear
2:53 AM 57.0 °F 50.0 °F 77% 29.98 in 10.0 mi NNE 4.6 mph - N/A   Clear
3:53 AM 55.9 °F 48.9 °F 77% 29.98 in 10.0 mi North 3.5 mph - N/A   Clear
4:53 AM 55.9 °F 48.9 °F 77% 29.98 in 10.0 mi Calm Calm - N/A   Overcast
5:53 AM 54.0 °F 48.0 °F 80% 29.98 in 10.0 mi Calm Calm - N/A   Clear
6:53 AM 52.0 °F 48.0 °F 86% 29.99 in 9.0 mi Calm Calm - N/A   Clear
7:53 AM 59.0 °F 48.9 °F 69% 30.00 in 10.0 mi Calm Calm - N/A   Mostly Cloudy
8:53 AM 64.9 °F 48.0 °F 54% 30.00 in 10.0 mi Calm Calm - N/A   Clear
9:53 AM 69.1 °F 50.0 °F 51% 30.01 in 10.0 mi Calm Calm - N/A   Clear
10:53 AM 73.9 °F 48.9 °F 41% 30.00 in 10.0 mi NNE 6.9 mph - N/A   Partly Cloudy
11:53 AM 75.9 °F 48.9 °F 38% 30.00 in 10.0 mi NNE 9.2 mph - N/A   Partly Cloudy
12:53 PM 79.0 °F 48.9 °F 35% 29.99 in 10.0 mi North 9.2 mph 16.1 mph N/A   Clear
1:53 PM 78.1 °F 46.9 °F 33% 29.97 in 10.0 mi North 10.4 mph - N/A   Partly Cloudy
2:53 PM 81.0 °F 46.9 °F 30% 29.95 in 10.0 mi North 8.1 mph - N/A   Mostly Cloudy
3:53 PM 77.0 °F 46.9 °F 34% 29.95 in 10.0 mi ENE 3.5 mph - 0.00 in Rain Light Rain
4:27 PM 78.8 °F 48.2 °F 34% 29.94 in 10.0 mi Variable 4.6 mph - 0.00 in Thunderstorm Thunderstorm
4:42 PM 78.8 °F 48.2 °F 34% 29.95 in 10.0 mi North 16.1 mph 20.7 mph 0.00 in   Overcast
4:53 PM 75.9 °F 46.9 °F 36% 29.94 in 10.0 mi North 17.3 mph 24.2 mph 0.00 in   Mostly Cloudy
5:53 PM 75.9 °F 51.1 °F 42% 29.94 in 10.0 mi ESE 5.8 mph - 0.00 in   Mostly Cloudy
6:53 PM 73.0 °F 51.1 °F 46% 29.95 in 10.0 mi ESE 8.1 mph - N/A   Clear
7:53 PM 70.0 °F 52.0 °F 53% 29.97 in 10.0 mi Calm Calm - N/A   Overcast
8:53 PM 68.0 °F 52.0 °F 56% 29.97 in 10.0 mi WSW 4.6 mph - N/A   Mostly Cloudy
9:53 PM 64.9 °F 53.1 °F 65% 29.98 in 10.0 mi Calm Calm - N/A   Mostly Cloudy
10:53 PM 64.0 °F 54.0 °F 70% 29.98 in 10.0 mi Calm Calm - N/A   Overcast
11:53 PM 64.0 °F 54.0 °F 70% 29.98 in 10.0 mi Calm Calm - N/A   Overcast